Time,TemperatureF,DewpointF,PressureIn,WindDirection,WindDirectionDegrees,WindSpeedMPH,WindSpeedGustMPH,Humidity,HourlyPrecipIn,Conditions,Clouds,dailyrainin,SoftwareType,DateUTC
2013-07-27 00:00:00,56.0,53.7,30.01,NNE,28,0.0,0.0,92,0.00,,,0.00,WeatherDisplay:10.37,2013-07-27 04:00:00,
2013-07-27 00:01:00,56.0,53.7,30.01,NNE,29,0.0,0.0,92,0.00,,,0.00,WeatherDisplay:10.37,2013-07-27 04:01:00,
2013-07-27 00:02:00,55.9,53.6,30.02,NNE,28,0.0,0.0,92,0.00,,,0.00,WeatherDisplay:10.37,2013-07-27 04:02:00,
2013-07-27 00:07:00,55.9,53.6,30.01,NNE,29,0.0,0.0,92,0.00,,,0.00,WeatherDisplay:10.37,2013-07-27 04:07:00,
2013-07-27 00:12:00,55.8,53.5,30.01,NNE,29,0.0,0.0,92,0.00,,,0.00,WeatherDisplay:10.37,2013-07-27 04:12:00,
2013-07-27 00:17:00,55.7,53.4,30.01,NNE,28,0.0,0.0,92,0.00,,,0.00,WeatherDisplay:10.37,2013-07-27 04:17:00,
2013-07-27 00:22:00,55.7,53.4,30.01,NNE,28,0.0,0.0,92,0.00,,,0.00,WeatherDisplay:10.37,2013-07-27 04:22:00,
2013-07-27 00:27:00,55.7,53.4,30.02,NNE,29,0.0,0.0,92,0.00,,,0.00,WeatherDisplay:10.37,2013-07-27 04:27:00,
2013-07-27 00:32:00,55.7,53.4,30.01,NNE,28,0.0,0.0,92,0.00,,,0.00,WeatherDisplay:10.37,2013-07-27 04:32:00,
2013-07-27 00:37:00,55.5,53.2,30.01,NNE,28,0.0,0.0,92,0.00,,,0.00,WeatherDisplay:10.37,2013-07-27 04:37:00,
2013-07-27 00:42:00,55.4,53.1,30.02,NNE,29,0.0,0.0,92,0.00,,,0.00,WeatherDisplay:10.37,2013-07-27 04:42:00,
2013-07-27 00:47:00,55.2,52.9,30.01,NNE,29,0.0,0.0,92,0.00,,,0.00,WeatherDisplay:10.37,2013-07-27 04:47:00,
2013-07-27 00:52:00,55.2,52.9,30.01,NNE,29,0.0,0.0,92,0.00,,,0.00,WeatherDisplay:10.37,2013-07-27 04:52:00,
2013-07-27 00:57:00,55.1,52.8,30.01,NNE,29,0.0,0.0,92,0.00,,,0.00,WeatherDisplay:10.37,2013-07-27 04:57:00,
2013-07-27 01:02:00,55.1,52.8,30.01,NNE,29,0.0,0.0,92,0.00,,,0.00,WeatherDisplay:10.37,2013-07-27 05:02:00,
2013-07-27 01:07:00,55.1,52.8,30.01,NNE,28,0.0,0.0,92,0.00,,,0.00,WeatherDisplay:10.37,2013-07-27 05:07:00,
2013-07-27 01:12:00,55.0,52.7,30.01,NNE,27,0.0,0.0,92,0.00,,,0.00,WeatherDisplay:10.37,2013-07-27 05:12:00,
2013-07-27 01:17:00,55.0,52.4,30.01,NNE,28,0.0,0.0,91,0.00,,,0.00,WeatherDisplay:10.37,2013-07-27 05:17:00,
2013-07-27 01:22:00,55.0,52.4,30.01,NNE,27,0.0,0.0,91,0.00,,,0.00,WeatherDisplay:10.37,2013-07-27 05:22:00,
2013-07-27 01:27:00,55.0,52.4,30.01,NNE,27,0.0,0.0,91,0.00,,,0.00,WeatherDisplay:10.37,2013-07-27 05:27:00,
2013-07-27 01:32:00,55.0,52.4,30.00,NNE,29,0.0,0.0,91,0.00,,,0.00,WeatherDisplay:10.37,2013-07-27 05:32:00,
2013-07-27 01:37:00,55.1,52.5,30.00,NNE,27,0.0,0.0,91,0.00,,,0.00,WeatherDisplay:10.37,2013-07-27 05:37:00,
2013-07-27 01:42:00,55.1,52.5,30.00,NNE,27,0.0,0.0,91,0.00,,,0.00,WeatherDisplay:10.37,2013-07-27 05:42:00,
2013-07-27 01:47:00,55.1,52.5,30.00,NNE,27,0.0,0.0,91,0.00,,,0.00,WeatherDisplay:10.37,2013-07-27 05:47:00,
2013-07-27 01:52:00,55.2,52.6,30.00,NNE,28,0.0,0.0,91,0.00,,,0.00,WeatherDisplay:10.37,2013-07-27 05:52:00,
2013-07-27 01:57:00,55.2,52.6,30.00,NNE,27,0.0,0.0,91,0.00,,,0.00,WeatherDisplay:10.37,2013-07-27 05:57:00,
2013-07-27 02:02:00,55.1,52.8,30.00,NNE,29,0.0,0.0,92,0.00,,,0.00,WeatherDisplay:10.37,2013-07-27 06:02:00,
2013-07-27 02:07:00,55.0,52.7,30.00,NNE,27,0.0,0.0,92,0.00,,,0.00,WeatherDisplay:10.37,2013-07-27 06:07:00,
2013-07-27 02:12:00,55.0,52.7,29.99,NNE,27,0.0,0.0,92,0.00,,,0.00,WeatherDisplay:10.37,2013-07-27 06:12:00,
2013-07-27 02:17:00,55.1,52.5,29.99,NNE,27,0.0,0.0,91,0.00,,,0.00,WeatherDisplay:10.37,2013-07-27 06:17:00,
2013-07-27 02:22:00,55.4,52.8,29.99,NNE,29,0.0,0.0,91,0.00,,,0.00,WeatherDisplay:10.37,2013-07-27 06:22:00,
2013-07-27 02:27:00,55.5,52.9,29.99,NNE,28,0.0,0.0,91,0.00,,,0.00,WeatherDisplay:10.37,2013-07-27 06:27:00,
2013-07-27 02:32:00,55.9,53.3,29.99,NNE,29,0.0,0.0,91,0.00,,,0.00,WeatherDisplay:10.37,2013-07-27 06:32:00,
2013-07-27 02:37:00,56.1,53.5,29.99,NNE,28,0.0,0.0,91,0.00,,,0.00,WeatherDisplay:10.37,2013-07-27 06:37:00,
2013-07-27 02:42:00,56.4,53.8,29.99,NNE,29,0.0,0.0,91,0.00,,,0.00,WeatherDisplay:10.37,2013-07-27 06:42:00,
2013-07-27 02:47:00,56.5,53.9,29.98,NNE,27,0.0,0.0,91,0.00,,,0.00,WeatherDisplay:10.37,2013-07-27 06:47:00,
2013-07-27 02:52:00,56.5,53.9,29.98,NNE,28,0.0,0.0,91,0.00,,,0.00,WeatherDisplay:10.37,2013-07-27 06:52:00,
2013-07-27 02:57:00,56.5,53.9,29.98,NNE,29,0.0,0.0,91,0.00,,,0.00,WeatherDisplay:10.37,2013-07-27 06:57:00,
2013-07-27 03:02:00,56.5,53.9,29.98,NNE,28,0.0,0.0,91,0.00,,,0.00,WeatherDisplay:10.37,2013-07-27 07:02:00,
2013-07-27 03:07:00,56.8,53.9,29.98,NNE,28,0.0,0.0,90,0.00,,,0.00,WeatherDisplay:10.37,2013-07-27 07:07:00,
2013-07-27 03:12:00,56.8,53.9,29.98,NNE,28,0.0,0.0,90,0.00,,,0.00,WeatherDisplay:10.37,2013-07-27 07:12:00,
2013-07-27 03:17:00,56.8,53.9,29.98,NNE,29,0.0,0.0,90,0.00,,,0.00,WeatherDisplay:10.37,2013-07-27 07:17:00,
2013-07-27 03:22:00,56.8,54.2,29.97,NNE,28,0.0,0.0,91,0.00,,,0.00,WeatherDisplay:10.37,2013-07-27 07:22:00,
2013-07-27 03:27:00,56.7,54.1,29.97,NNE,29,0.0,0.0,91,0.00,,,0.00,WeatherDisplay:10.37,2013-07-27 07:27:00,
2013-07-27 03:32:00,56.7,53.8,29.97,NNE,29,0.0,0.0,90,0.00,,,0.00,WeatherDisplay:10.37,2013-07-27 07:32:00,
2013-07-27 03:37:00,56.7,53.8,29.97,NNE,28,0.0,0.0,90,0.00,,,0.00,WeatherDisplay:10.37,2013-07-27 07:37:00,
2013-07-27 03:42:00,56.6,53.7,29.97,NNE,29,0.0,0.0,90,0.00,,,0.00,WeatherDisplay:10.37,2013-07-27 07:42:00,
2013-07-27 03:47:00,56.6,53.7,29.97,NNE,28,0.0,0.0,90,0.00,,,0.00,WeatherDisplay:10.37,2013-07-27 07:47:00,
2013-07-27 03:52:00,56.6,53.7,29.97,NNE,28,0.0,0.0,90,0.00,,,0.00,WeatherDisplay:10.37,2013-07-27 07:52:00,
2013-07-27 03:57:00,56.7,53.8,29.97,NNE,28,0.0,0.0,90,0.00,,,0.00,WeatherDisplay:10.37,2013-07-27 07:57:00,
2013-07-27 04:02:00,56.6,53.7,29.97,NNE,29,0.0,0.0,90,0.00,,,0.00,WeatherDisplay:10.37,2013-07-27 08:02:00,
2013-07-27 04:07:00,56.5,53.6,29.96,NNE,28,0.0,0.0,90,0.00,,,0.00,WeatherDisplay:10.37,2013-07-27 08:07:00,
2013-07-27 04:12:00,56.5,53.6,29.97,NNE,28,0.0,0.0,90,0.00,,,0.00,WeatherDisplay:10.37,2013-07-27 08:12:00,
2013-07-27 04:17:00,56.5,53.6,29.96,NNE,29,0.0,0.0,90,0.00,,,0.00,WeatherDisplay:10.37,2013-07-27 08:17:00,
2013-07-27 04:22:00,56.5,53.3,29.97,NNE,29,0.0,0.0,89,0.00,,,0.00,WeatherDisplay:10.37,2013-07-27 08:22:00,
2013-07-27 04:27:00,56.5,53.3,29.96,NNE,28,0.0,0.0,89,0.00,,,0.00,WeatherDisplay:10.37,2013-07-27 08:27:00,
2013-07-27 04:32:00,56.6,53.4,29.96,NNE,28,0.0,0.0,89,0.00,,,0.00,WeatherDisplay:10.37,2013-07-27 08:32:00,
2013-07-27 04:37:00,56.7,53.5,29.96,NNE,29,0.0,0.0,89,0.00,,,0.00,WeatherDisplay:10.37,2013-07-27 08:37:00,
2013-07-27 04:42:00,56.8,53.6,29.96,NNE,28,0.0,0.0,89,0.00,,,0.00,WeatherDisplay:10.37,2013-07-27 08:42:00,
2013-07-27 04:47:00,56.8,53.6,29.96,NNE,29,0.0,0.0,89,0.00,,,0.00,WeatherDisplay:10.37,2013-07-27 08:47:00,
2013-07-27 04:52:00,56.8,53.6,29.96,NNE,28,0.0,0.0,89,0.00,,,0.00,WeatherDisplay:10.37,2013-07-27 08:52:00,
2013-07-27 04:57:00,56.8,53.6,29.96,NNE,29,0.0,0.0,89,0.00,,,0.00,WeatherDisplay:10.37,2013-07-27 08:57:00,
2013-07-27 05:02:00,56.7,53.5,29.96,NNE,29,0.0,0.0,89,0.00,,,0.00,WeatherDisplay:10.37,2013-07-27 09:02:00,
2013-07-27 05:07:00,56.7,53.5,29.96,NNE,29,0.0,0.0,89,0.00,,,0.00,WeatherDisplay:10.37,2013-07-27 09:07:00,
2013-07-27 05:12:00,56.7,53.5,29.96,NNE,28,0.0,0.0,89,0.00,,,0.00,WeatherDisplay:10.37,2013-07-27 09:12:00,
2013-07-27 05:17:00,56.6,53.4,29.96,NNE,28,0.0,0.0,89,0.00,,,0.00,WeatherDisplay:10.37,2013-07-27 09:17:00,
2013-07-27 05:22:00,56.5,53.3,29.96,NNE,29,0.0,0.0,89,0.00,,,0.00,WeatherDisplay:10.37,2013-07-27 09:22:00,
2013-07-27 05:28:00,56.4,53.2,29.96,NNE,28,0.0,0.0,89,0.00,CLR,,0.00,WeatherDisplay:10.37,2013-07-27 09:28:00,
2013-07-27 05:33:00,56.3,53.1,29.96,NNE,29,0.0,0.0,89,0.00,CLR,,0.00,WeatherDisplay:10.37,2013-07-27 09:33:00,
2013-07-27 05:38:00,56.3,53.1,29.97,NNE,28,0.0,0.0,89,0.00,CLR,,0.00,WeatherDisplay:10.37,2013-07-27 09:38:00,
2013-07-27 05:43:00,56.3,53.1,29.97,NNE,28,0.0,0.0,89,0.00,CLR,,0.00,WeatherDisplay:10.37,2013-07-27 09:43:00,
2013-07-27 05:48:00,56.2,53.0,29.97,NNE,29,0.0,0.0,89,0.00,CLR,,0.00,WeatherDisplay:10.37,2013-07-27 09:48:00,
2013-07-27 05:53:00,56.2,53.0,29.97,NNE,28,0.0,0.0,89,0.00,CLR,,0.00,WeatherDisplay:10.37,2013-07-27 09:53:00,
2013-07-27 05:58:00,56.2,53.0,29.97,NNE,28,0.0,0.0,89,0.00,CLR,,0.00,WeatherDisplay:10.37,2013-07-27 09:58:00,
2013-07-27 06:03:00,56.2,53.0,29.96,NNE,28,0.0,0.0,89,0.00,CLR,,0.00,WeatherDisplay:10.37,2013-07-27 10:03:00,
2013-07-27 06:08:00,56.2,53.0,29.96,NNE,29,0.0,0.0,89,0.00,CLR,,0.00,WeatherDisplay:10.37,2013-07-27 10:08:00,
2013-07-27 06:13:00,56.3,53.1,29.96,NNE,28,0.0,0.0,89,0.00,CLR,,0.00,WeatherDisplay:10.37,2013-07-27 10:13:00,
2013-07-27 06:18:00,56.4,52.9,29.96,NNE,29,0.0,0.0,88,0.00,CLR,,0.00,WeatherDisplay:10.37,2013-07-27 10:18:00,
2013-07-27 06:23:00,56.6,53.1,29.96,NNE,29,0.0,0.0,88,0.00,CLR,,0.00,WeatherDisplay:10.37,2013-07-27 10:23:00,
2013-07-27 06:28:00,56.7,53.2,29.96,NNE,28,0.0,0.0,88,0.00,CLR,,0.00,WeatherDisplay:10.37,2013-07-27 10:28:00,
2013-07-27 06:33:00,56.9,53.4,29.97,NNE,29,0.0,0.0,88,0.00,CLR,,0.00,WeatherDisplay:10.37,2013-07-27 10:33:00,
2013-07-27 06:38:00,57.0,53.5,29.96,NNE,29,0.0,0.0,88,0.00,CLR,,0.00,WeatherDisplay:10.37,2013-07-27 10:38:00,
2013-07-27 06:43:00,57.2,53.7,29.96,NNE,28,0.0,0.0,88,0.00,CLR,,0.00,WeatherDisplay:10.37,2013-07-27 10:43:00,
2013-07-27 06:48:00,57.4,53.9,29.97,NNE,29,0.0,0.0,88,0.00,CLR,,0.00,WeatherDisplay:10.37,2013-07-27 10:48:00,
2013-07-27 06:53:00,57.7,54.2,29.96,NNE,29,0.0,0.0,88,0.00,CLR,,0.00,WeatherDisplay:10.37,2013-07-27 10:53:00,
2013-07-27 06:58:00,58.2,55.0,29.96,NNE,29,0.0,0.0,89,0.00,CLR,,0.00,WeatherDisplay:10.37,2013-07-27 10:58:00,
2013-07-27 07:03:00,59.0,55.8,29.97,NE,44,0.0,0.0,89,0.00,CLR,,0.00,WeatherDisplay:10.37,2013-07-27 11:03:00,
2013-07-27 07:08:00,59.9,56.6,29.97,NE,44,0.0,0.0,89,0.00,CLR,,0.00,WeatherDisplay:10.37,2013-07-27 11:08:00,
2013-07-27 07:13:00,60.4,57.1,29.97,NE,50,0.0,0.0,89,0.00,CLR,,0.00,WeatherDisplay:10.37,2013-07-27 11:13:00,
2013-07-27 07:18:00,61.2,57.9,29.97,ESE,106,0.0,0.0,89,0.00,CLR,,0.00,WeatherDisplay:10.37,2013-07-27 11:18:00,
2013-07-27 07:23:00,61.9,58.3,29.96,SE,135,0.0,0.0,88,0.00,CLR,,0.00,WeatherDisplay:10.37,2013-07-27 11:23:00,
2013-07-27 07:28:00,62.1,58.8,29.97,SSE,148,0.0,0.0,89,0.00,CLR,,0.00,WeatherDisplay:10.37,2013-07-27 11:28:00,
2013-07-27 07:33:00,62.3,59.6,29.97,SE,141,0.0,0.0,91,0.00,CLR,,0.00,WeatherDisplay:10.37,2013-07-27 11:33:00,
2013-07-27 07:38:00,62.6,59.9,29.97,ENE,57,0.0,0.0,91,0.00,CLR,,0.00,WeatherDisplay:10.37,2013-07-27 11:38:00,
2013-07-27 07:43:00,63.2,60.8,29.97,ESE,108,1.0,1.0,92,0.00,CLR,,0.00,WeatherDisplay:10.37,2013-07-27 11:43:00,
2013-07-27 07:48:00,63.6,61.2,29.97,SE,134,0.0,0.0,92,0.00,CLR,,0.00,WeatherDisplay:10.37,2013-07-27 11:48:00,
2013-07-27 07:53:00,64.2,61.8,29.97,SSE,162,0.0,0.0,92,0.00,CLR,,0.00,WeatherDisplay:10.37,2013-07-27 11:53:00,
2013-07-27 07:58:00,64.7,62.0,29.97,East,84,3.5,0.0,91,0.00,CLR,,0.00,WeatherDisplay:10.37,2013-07-27 11:58:00,
2013-07-27 08:03:00,65.2,62.2,29.97,ENE,75,1.1,0.0,90,0.00,CLR,,0.00,WeatherDisplay:10.37,2013-07-27 12:03:00,
2013-07-27 08:08:00,65.6,62.3,29.97,SE,131,3.5,3.5,89,0.00,CLR,,0.00,WeatherDisplay:10.37,2013-07-27 12:08:00,
2013-07-27 08:13:00,66.0,62.7,29.97,South,172,2.3,2.3,89,0.00,CLR,,0.00,WeatherDisplay:10.37,2013-07-27 12:13:00,
2013-07-27 08:18:00,66.6,62.9,29.96,South,187,3.0,3.0,88,0.00,CLR,,0.00,WeatherDisplay:10.37,2013-07-27 12:18:00,
2013-07-27 08:23:00,66.9,62.9,29.96,ESE,105,2.3,2.3,87,0.00,CLR,,0.00,WeatherDisplay:10.37,2013-07-27 12:23:00,
2013-07-27 08:28:00,66.9,62.9,29.97,ESE,105,3.5,3.5,87,0.00,CLR,,0.00,WeatherDisplay:10.37,2013-07-27 12:28:00,
2013-07-27 08:33:00,66.9,62.9,29.96,WNW,299,2.3,2.3,87,0.00,CLR,,0.00,WeatherDisplay:10.37,2013-07-27 12:33:00,
2013-07-27 08:38:00,67.1,63.1,29.97,ENE,68,1.1,1.1,87,0.00,CLR,,0.00,WeatherDisplay:10.37,2013-07-27 12:38:00,
2013-07-27 08:43:00,67.6,63.3,29.97,SSE,157,0.0,0.0,86,0.00,CLR,,0.00,WeatherDisplay:10.37,2013-07-27 12:43:00,
2013-07-27 08:48:00,67.8,63.5,29.96,ENE,65,0.0,0.0,86,0.00,CLR,,0.00,WeatherDisplay:10.37,2013-07-27 12:48:00,
2013-07-27 08:53:00,68.0,63.7,29.96,SE,136,0.0,0.0,86,0.00,CLR,,0.00,WeatherDisplay:10.37,2013-07-27 12:53:00,
2013-07-27 08:58:00,68.4,63.7,29.96,SE,127,1.1,1.1,85,0.00,CLR,,0.00,WeatherDisplay:10.37,2013-07-27 12:58:00,
2013-07-27 09:03:00,68.8,63.8,29.96,ENE,64,2.0,2.0,84,0.00,CLR,,0.00,WeatherDisplay:10.37,2013-07-27 13:03:00,
2013-07-27 09:08:00,69.0,63.6,29.96,SSE,158,1.1,0.0,83,0.00,CLR,,0.00,WeatherDisplay:10.37,2013-07-27 13:08:00,
2013-07-27 09:13:00,69.2,63.8,29.96,NNE,18,3.0,3.0,83,0.00,CLR,,0.00,WeatherDisplay:10.37,2013-07-27 13:13:00,
2013-07-27 09:18:00,69.2,63.8,29.96,South,184,2.3,2.3,83,0.00,CLR,,0.00,WeatherDisplay:10.37,2013-07-27 13:18:00,
2013-07-27 09:23:00,69.4,63.7,29.96,SE,139,4.6,4.6,82,0.00,CLR,,0.00,WeatherDisplay:10.37,2013-07-27 13:23:00,
2013-07-27 09:28:00,69.4,64.0,29.95,ESE,110,0.0,0.0,83,0.00,CLR,,0.00,WeatherDisplay:10.37,2013-07-27 13:28:00,
2013-07-27 09:33:00,69.7,64.0,29.95,SSE,158,1.1,0.0,82,0.00,CLR,,0.00,WeatherDisplay:10.37,2013-07-27 13:33:00,
2013-07-27 09:38:00,70.1,64.0,29.96,SSE,158,3.5,3.5,81,0.00,CLR,,0.00,WeatherDisplay:10.37,2013-07-27 13:38:00,
2013-07-27 09:43:00,69.9,64.2,29.96,South,172,1.1,1.1,82,0.00,CLR,,0.00,WeatherDisplay:10.37,2013-07-27 13:43:00,
2013-07-27 09:48:00,69.7,63.6,29.96,SW,231,1.1,1.1,81,0.00,CLR,,0.00,WeatherDisplay:10.37,2013-07-27 13:48:00,
2013-07-27 09:53:00,69.6,63.9,29.96,SSW,200,2.3,2.3,82,0.00,CLR,,0.00,WeatherDisplay:10.37,2013-07-27 13:53:00,
2013-07-27 09:58:00,69.8,64.1,29.96,SSW,200,0.0,0.0,82,0.00,CLR,,0.00,WeatherDisplay:10.37,2013-07-27 13:58:00,
2013-07-27 10:03:00,70.1,64.0,29.96,SW,232,0.0,0.0,81,0.00,CLR,,0.00,WeatherDisplay:10.37,2013-07-27 14:03:00,
2013-07-27 10:08:00,70.2,64.4,29.96,SW,231,0.0,0.0,82,0.00,CLR,,0.00,WeatherDisplay:10.37,2013-07-27 14:08:00,
2013-07-27 10:13:00,70.2,64.4,29.96,SE,127,0.0,0.0,82,0.00,CLR,,0.00,WeatherDisplay:10.37,2013-07-27 14:13:00,
2013-07-27 10:18:00,70.3,64.2,29.96,SE,124,2.3,2.3,81,0.00,CLR,,0.00,WeatherDisplay:10.37,2013-07-27 14:18:00,
2013-07-27 10:23:00,70.4,64.3,29.95,SE,145,2.0,2.0,81,0.00,CLR,,0.00,WeatherDisplay:10.37,2013-07-27 14:23:00,
2013-07-27 10:28:00,70.8,64.0,29.96,SE,135,0.0,0.0,79,0.00,CLR,,0.00,WeatherDisplay:10.37,2013-07-27 14:28:00,
2013-07-27 10:33:00,71.2,64.4,29.95,South,181,4.0,4.0,79,0.00,CLR,,0.00,WeatherDisplay:10.37,2013-07-27 14:33:00,
2013-07-27 10:38:00,71.8,64.9,29.95,SW,231,1.1,1.1,79,0.00,CLR,,0.00,WeatherDisplay:10.37,2013-07-27 14:38:00,
2013-07-27 10:43:00,72.8,65.9,29.95,West,275,2.3,2.3,79,0.00,CLR,,0.00,WeatherDisplay:10.37,2013-07-27 14:43:00,
2013-07-27 10:48:00,73.5,65.1,29.95,ENE,63,3.0,3.0,75,0.00,CLR,,0.00,WeatherDisplay:10.37,2013-07-27 14:48:00,
2013-07-27 10:53:00,73.9,65.5,29.95,ENE,76,3.5,3.5,75,0.00,CLR,,0.00,WeatherDisplay:10.37,2013-07-27 14:53:00,
2013-07-27 10:58:00,74.0,65.2,29.95,NE,44,1.1,1.1,74,0.00,CLR,,0.00,WeatherDisplay:10.37,2013-07-27 14:58:00,
2013-07-27 11:03:00,73.9,65.5,29.95,ENE,61,2.3,2.3,75,0.00,CLR,,0.00,WeatherDisplay:10.37,2013-07-27 15:03:00,
2013-07-27 11:08:00,73.7,65.7,29.95,ESE,105,1.1,1.1,76,0.00,CLR,,0.00,WeatherDisplay:10.37,2013-07-27 15:08:00,
2013-07-27 11:13:00,74.0,66.0,29.94,SE,127,3.5,3.5,76,0.00,CLR,,0.00,WeatherDisplay:10.37,2013-07-27 15:13:00,
2013-07-27 11:18:00,74.4,65.6,29.94,ESE,113,2.3,2.3,74,0.00,CLR,,0.00,WeatherDisplay:10.37,2013-07-27 15:18:00,
2013-07-27 11:23:00,74.9,65.7,29.94,SE,146,2.3,2.3,73,0.00,CLR,,0.00,WeatherDisplay:10.37,2013-07-27 15:23:00,
2013-07-27 11:28:00,75.3,66.0,29.94,WSW,239,2.3,2.3,73,0.00,CLR,,0.00,WeatherDisplay:10.37,2013-07-27 15:28:00,
2013-07-27 11:34:00,75.4,64.9,29.94,SSW,200,4.6,4.6,70,0.00,CLR,,0.00,WeatherDisplay:10.37,2013-07-27 15:34:00,
2013-07-27 11:39:00,75.3,66.4,29.94,SE,138,4.0,4.0,74,0.00,CLR,,0.00,WeatherDisplay:10.37,2013-07-27 15:39:00,
2013-07-27 11:44:00,75.1,66.2,29.94,SE,142,4.0,4.0,74,0.00,CLR,,0.00,WeatherDisplay:10.37,2013-07-27 15:44:00,
2013-07-27 11:49:00,75.2,66.3,29.94,East,79,2.3,2.3,74,0.00,CLR,,0.00,WeatherDisplay:10.37,2013-07-27 15:49:00,
2013-07-27 11:54:00,75.6,66.3,29.94,SSE,153,3.5,3.5,73,0.00,CLR,,0.00,WeatherDisplay:10.37,2013-07-27 15:54:00,
2013-07-27 11:59:00,75.8,66.9,29.94,South,170,3.5,3.5,74,0.00,CLR,,0.00,WeatherDisplay:10.37,2013-07-27 15:59:00,
2013-07-27 12:04:00,75.9,67.4,29.94,SW,217,2.0,2.0,75,0.00,CLR,,0.00,WeatherDisplay:10.37,2013-07-27 16:04:00,
2013-07-27 12:09:00,75.9,67.0,29.94,SE,141,4.6,4.6,74,0.00,CLR,,0.00,WeatherDisplay:10.37,2013-07-27 16:09:00,
2013-07-27 12:14:00,76.5,66.8,29.94,SSW,200,4.0,4.0,72,0.00,CLR,,0.00,WeatherDisplay:10.37,2013-07-27 16:14:00,
2013-07-27 12:19:00,77.2,66.7,29.94,SW,232,4.6,4.6,70,0.00,CLR,,0.00,WeatherDisplay:10.37,2013-07-27 16:19:00,
2013-07-27 12:24:00,77.8,67.2,29.94,SSW,194,3.0,3.0,70,0.00,CLR,,0.00,WeatherDisplay:10.37,2013-07-27 16:24:00,
2013-07-27 12:29:00,78.5,67.5,29.93,SE,125,5.0,5.0,69,0.00,CLR,,0.00,WeatherDisplay:10.37,2013-07-27 16:29:00,
2013-07-27 12:34:00,78.9,67.9,29.93,South,179,2.0,2.0,69,0.00,CLR,,0.00,WeatherDisplay:10.37,2013-07-27 16:34:00,
2013-07-27 12:39:00,79.0,67.5,29.93,ESE,105,1.1,1.1,68,0.00,CLR,,0.00,WeatherDisplay:10.37,2013-07-27 16:39:00,
2013-07-27 12:44:00,79.0,68.4,29.92,East,97,3.5,3.5,70,0.00,CLR,,0.00,WeatherDisplay:10.37,2013-07-27 16:44:00,
2013-07-27 12:49:00,78.9,69.5,29.92,South,181,2.3,2.3,73,0.00,CLR,,0.00,WeatherDisplay:10.37,2013-07-27 16:49:00,
2013-07-27 12:54:00,78.8,69.4,29.92,SSW,207,5.8,5.8,73,0.00,CLR,,0.00,WeatherDisplay:10.37,2013-07-27 16:54:00,
2013-07-27 12:59:00,78.7,68.9,29.92,SW,235,1.1,0.0,72,0.00,CLR,,0.00,WeatherDisplay:10.37,2013-07-27 16:59:00,
2013-07-27 13:04:00,78.9,68.3,29.91,NNE,14,3.5,3.5,70,0.00,CLR,,0.00,WeatherDisplay:10.37,2013-07-27 17:04:00,
2013-07-27 13:09:00,78.8,69.0,29.92,WSW,240,3.5,3.5,72,0.00,CLR,,0.00,WeatherDisplay:10.37,2013-07-27 17:09:00,
2013-07-27 13:14:00,78.3,67.7,29.91,South,178,4.6,4.6,70,0.00,CLR,,0.00,WeatherDisplay:10.37,2013-07-27 17:14:00,
2013-07-27 13:19:00,78.0,68.6,29.92,SSE,151,2.3,2.3,73,0.00,CLR,,0.00,WeatherDisplay:10.37,2013-07-27 17:19:00,
2013-07-27 13:24:00,78.0,68.6,29.92,SE,131,2.3,2.3,73,0.00,CLR,,0.00,WeatherDisplay:10.37,2013-07-27 17:24:00,
2013-07-27 13:29:00,78.2,69.2,29.91,ESE,115,2.3,2.3,74,0.00,CLR,,0.00,WeatherDisplay:10.37,2013-07-27 17:29:00,
2013-07-27 13:34:00,78.2,69.2,29.91,WNW,295,3.5,3.5,74,0.00,CLR,,0.00,WeatherDisplay:10.37,2013-07-27 17:34:00,
2013-07-27 13:40:00,78.3,68.9,29.91,NE,47,2.3,2.3,73,0.00,CLR,,0.00,WeatherDisplay:10.37,2013-07-27 17:40:00,
2013-07-27 13:45:00,78.1,68.7,29.91,NE,40,1.1,1.1,73,0.00,CLR,,0.00,WeatherDisplay:10.37,2013-07-27 17:45:00,
2013-07-27 13:50:00,78.2,69.6,29.91,SE,131,1.1,0.0,75,0.00,CLR,,0.00,WeatherDisplay:10.37,2013-07-27 17:50:00,
2013-07-27 13:55:00,78.6,69.6,29.90,SE,146,3.5,3.5,74,0.00,CLR,,0.00,WeatherDisplay:10.37,2013-07-27 17:55:00,
2013-07-27 14:00:00,78.9,68.3,29.90,ESE,118,3.5,3.5,70,0.00,CLR,,0.00,WeatherDisplay:10.37,2013-07-27 18:00:00,
2013-07-27 14:05:00,79.2,69.8,29.90,SW,236,1.1,0.0,73,0.00,,,0.00,WeatherDisplay:10.37,2013-07-27 18:05:00,
2013-07-27 14:10:00,79.7,69.0,29.90,SSE,155,2.3,2.3,70,0.00,,,0.00,WeatherDisplay:10.37,2013-07-27 18:10:00,
2013-07-27 14:15:00,79.8,69.1,29.90,SSE,158,1.1,1.1,70,0.00,,,0.00,WeatherDisplay:10.37,2013-07-27 18:15:00,
2013-07-27 14:20:00,80.0,69.7,29.90,ENE,73,2.3,2.4,71,0.00,,,0.00,WeatherDisplay:10.37,2013-07-27 18:20:00,
2013-07-27 14:25:00,80.3,68.8,29.90,SE,139,3.5,3.5,68,0.00,,,0.00,WeatherDisplay:10.37,2013-07-27 18:25:00,
2013-07-27 14:30:00,80.6,69.5,29.90,ESE,111,3.5,3.5,69,0.00,,,0.00,WeatherDisplay:10.37,2013-07-27 18:30:00,
2013-07-27 14:35:00,80.5,69.8,29.90,SE,124,1.1,1.1,70,0.00,,,0.00,WeatherDisplay:10.37,2013-07-27 18:35:00,
2013-07-27 14:36:00,80.5,69.0,29.90,South,184,2.3,2.3,68,0.00,,,0.00,WeatherDisplay:10.37,2013-07-27 18:36:00,
2013-07-27 14:41:00,81.0,69.9,29.90,SW,215,3.5,3.5,69,0.00,,,0.00,WeatherDisplay:10.37,2013-07-27 18:41:00,
2013-07-27 14:46:00,81.8,69.8,29.90,East,79,1.1,1.1,67,0.00,,,0.00,WeatherDisplay:10.37,2013-07-27 18:46:00,
2013-07-27 14:51:00,82.3,69.8,29.90,SE,132,1.1,1.1,66,0.00,,,0.00,WeatherDisplay:10.37,2013-07-27 18:51:00,
2013-07-27 14:56:00,82.6,69.6,29.89,East,88,3.5,3.5,65,0.00,,,0.00,WeatherDisplay:10.37,2013-07-27 18:56:00,
2013-07-27 15:01:00,82.6,70.5,29.89,ESE,113,3.5,3.5,67,0.00,,,0.00,WeatherDisplay:10.37,2013-07-27 19:01:00,
2013-07-27 15:06:00,82.4,70.8,29.89,South,169,2.3,2.3,68,0.00,,,0.00,WeatherDisplay:10.37,2013-07-27 19:06:00,
2013-07-27 15:11:00,82.1,70.1,29.89,SSE,149,3.5,3.5,67,0.00,,,0.00,WeatherDisplay:10.37,2013-07-27 19:11:00,
2013-07-27 15:17:00,82.6,71.0,29.88,SSE,153,0.0,0.0,68,0.00,,,0.00,WeatherDisplay:10.37,2013-07-27 19:17:00,
2013-07-27 15:22:00,83.2,70.2,29.88,SSW,195,1.1,1.1,65,0.00,,,0.00,WeatherDisplay:10.37,2013-07-27 19:22:00,
2013-07-27 15:27:00,83.0,70.5,29.88,SSE,153,1.1,0.0,66,0.00,,,0.00,WeatherDisplay:10.37,2013-07-27 19:27:00,
2013-07-27 15:32:00,82.4,69.0,29.88,WNW,297,3.5,3.5,64,0.00,,,0.00,WeatherDisplay:10.37,2013-07-27 19:32:00,
2013-07-27 15:37:00,82.0,69.5,29.87,SW,219,2.3,2.3,66,0.00,,,0.00,WeatherDisplay:10.37,2013-07-27 19:37:00,
2013-07-27 15:42:00,81.8,69.3,29.87,SSE,164,1.1,1.1,66,0.00,,,0.00,WeatherDisplay:10.37,2013-07-27 19:42:00,
2013-07-27 15:47:00,81.9,70.3,29.88,SSW,198,2.0,2.0,68,0.00,,,0.00,WeatherDisplay:10.37,2013-07-27 19:47:00,
2013-07-27 15:52:00,81.5,69.9,29.87,SE,142,2.3,2.3,68,0.00,,,0.00,WeatherDisplay:10.37,2013-07-27 19:52:00,
2013-07-27 15:57:00,80.8,70.1,29.87,SSE,165,3.5,3.5,70,0.00,,,0.00,WeatherDisplay:10.37,2013-07-27 19:57:00,
2013-07-27 16:02:00,80.2,69.9,29.87,WSW,248,2.3,0.0,71,0.00,,,0.00,WeatherDisplay:10.37,2013-07-27 20:02:00,
2013-07-27 16:07:00,79.7,69.5,29.87,SE,141,0.0,0.0,71,0.00,,,0.00,WeatherDisplay:10.37,2013-07-27 20:07:00,
2013-07-27 16:12:00,79.3,69.5,29.86,SSE,161,1.0,0.0,72,0.00,,,0.00,WeatherDisplay:10.37,2013-07-27 20:12:00,
2013-07-27 16:17:00,79.5,69.7,29.87,SSE,165,3.5,3.5,72,0.00,,,0.00,WeatherDisplay:10.37,2013-07-27 20:17:00,
2013-07-27 16:23:00,79.6,70.6,29.86,SSE,149,2.3,0.0,74,0.00,,,0.00,WeatherDisplay:10.37,2013-07-27 20:23:00,
2013-07-27 16:28:00,79.4,70.8,29.86,ESE,108,1.1,0.0,75,0.00,,,0.00,WeatherDisplay:10.37,2013-07-27 20:28:00,
2013-07-27 16:33:00,78.8,70.6,29.86,SSW,205,6.9,6.9,76,0.00,,,0.00,WeatherDisplay:10.37,2013-07-27 20:33:00,
2013-07-27 16:38:00,78.4,70.2,29.86,SE,145,2.3,2.3,76,0.00,,,0.00,WeatherDisplay:10.37,2013-07-27 20:38:00,
2013-07-27 16:43:00,78.3,70.5,29.86,SE,132,3.5,3.5,77,0.00,,,0.00,WeatherDisplay:10.37,2013-07-27 20:43:00,
2013-07-27 17:03:00,72.9,68.1,29.89,SW,235,12.0,12.0,85,0.35,RA,,0.37,WeatherDisplay:10.37,2013-07-27 21:03:00,
2013-07-27 17:08:00,70.7,66.6,29.88,NNE,17,3.5,3.5,87,0.44,RA,,0.44,WeatherDisplay:10.37,2013-07-27 21:08:00,
2013-07-27 17:13:00,69.7,66.3,29.87,East,101,2.3,2.3,89,0.45,RA,,0.45,WeatherDisplay:10.37,2013-07-27 21:13:00,
2013-07-27 17:18:00,69.4,66.3,29.87,ENE,72,1.0,1.0,90,0.45,RA,,0.45,WeatherDisplay:10.37,2013-07-27 21:18:00,
2013-07-27 17:23:00,69.3,66.2,29.86,East,88,0.0,0.0,90,0.45,CLR,,0.45,WeatherDisplay:10.37,2013-07-27 21:23:00,
2013-07-27 17:28:00,69.6,66.5,29.85,East,88,0.0,0.0,90,0.45,CLR,,0.45,WeatherDisplay:10.37,2013-07-27 21:28:00,
2013-07-27 17:33:00,69.8,66.4,29.85,East,88,0.0,0.0,89,0.45,CLR,,0.45,WeatherDisplay:10.37,2013-07-27 21:33:00,
2013-07-27 17:38:00,70.1,66.7,29.85,East,87,0.0,0.0,89,0.45,CLR,,0.45,WeatherDisplay:10.37,2013-07-27 21:38:00,
2013-07-27 17:43:00,70.4,67.3,29.86,East,89,0.0,0.0,90,0.45,CLR,,0.45,WeatherDisplay:10.37,2013-07-27 21:43:00,
2013-07-27 17:48:00,70.8,67.4,29.86,East,89,0.0,0.0,89,0.45,CLR,,0.45,WeatherDisplay:10.37,2013-07-27 21:48:00,
2013-07-27 17:53:00,70.9,67.8,29.86,ESE,102,0.0,0.0,90,0.45,CLR,,0.45,WeatherDisplay:10.37,2013-07-27 21:53:00,
2013-07-27 17:58:00,71.0,67.9,29.86,East,101,0.0,0.0,90,0.24,CLR,,0.45,WeatherDisplay:10.37,2013-07-27 21:58:00,
2013-07-27 18:03:00,71.0,67.9,29.86,ESE,103,0.0,0.0,90,0.10,CLR,,0.45,WeatherDisplay:10.37,2013-07-27 22:03:00,
2013-07-27 18:08:00,71.0,67.9,29.86,ESE,105,0.0,0.0,90,0.01,CLR,,0.45,WeatherDisplay:10.37,2013-07-27 22:08:00,
2013-07-27 18:13:00,71.0,67.9,29.85,ESE,105,0.0,0.0,90,0.00,CLR,,0.45,WeatherDisplay:10.37,2013-07-27 22:13:00,
2013-07-27 18:18:00,70.7,67.6,29.85,ESE,104,0.0,0.0,90,0.00,CLR,,0.45,WeatherDisplay:10.37,2013-07-27 22:18:00,
2013-07-27 18:23:00,70.6,67.5,29.85,ESE,104,0.0,0.0,90,0.00,CLR,,0.45,WeatherDisplay:10.37,2013-07-27 22:23:00,
2013-07-27 18:28:00,70.6,67.5,29.85,ESE,104,0.0,0.0,90,0.00,CLR,,0.45,WeatherDisplay:10.37,2013-07-27 22:28:00,
2013-07-27 18:33:00,70.6,67.5,29.86,ESE,105,0.0,0.0,90,0.00,CLR,,0.45,WeatherDisplay:10.37,2013-07-27 22:33:00,
2013-07-27 18:38:00,70.6,67.5,29.86,ESE,105,0.0,0.0,90,0.00,CLR,,0.45,WeatherDisplay:10.37,2013-07-27 22:38:00,
2013-07-27 18:43:00,70.6,67.5,29.87,ESE,105,0.0,0.0,90,0.00,CLR,,0.45,WeatherDisplay:10.37,2013-07-27 22:43:00,
2013-07-27 18:48:00,70.5,67.4,29.87,ESE,105,0.0,0.0,90,0.00,CLR,,0.45,WeatherDisplay:10.37,2013-07-27 22:48:00,
2013-07-27 18:53:00,70.4,67.3,29.88,ESE,104,0.0,0.0,90,0.00,CLR,,0.45,WeatherDisplay:10.37,2013-07-27 22:53:00,
2013-07-27 18:58:00,70.2,67.1,29.87,ESE,104,0.0,0.0,90,0.00,CLR,,0.45,WeatherDisplay:10.37,2013-07-27 22:58:00,
2013-07-27 19:03:00,70.0,66.9,29.88,ESE,105,0.0,0.0,90,0.01,RA,,0.46,WeatherDisplay:10.37,2013-07-27 23:03:00,
2013-07-27 19:08:00,69.9,66.8,29.88,ESE,105,0.0,0.0,90,0.01,RA,,0.46,WeatherDisplay:10.37,2013-07-27 23:08:00,
2013-07-27 19:13:00,69.9,66.8,29.88,ESE,105,0.0,0.0,90,0.01,CLR,,0.46,WeatherDisplay:10.37,2013-07-27 23:13:00,
2013-07-27 19:18:00,69.7,66.6,29.87,ESE,105,0.0,0.0,90,0.01,CLR,,0.47,WeatherDisplay:10.37,2013-07-27 23:18:00,
2013-07-27 19:24:00,69.6,66.5,29.88,ESE,105,0.0,0.0,90,0.02,RA,,0.47,WeatherDisplay:10.37,2013-07-27 23:24:00,
2013-07-27 19:29:00,69.5,66.1,29.87,ESE,105,0.0,0.0,89,0.03,RA,,0.48,WeatherDisplay:10.37,2013-07-27 23:29:00,
2013-07-27 19:34:00,69.4,66.0,29.87,ESE,107,0.0,0.0,89,0.04,RA,,0.49,WeatherDisplay:10.37,2013-07-27 23:34:00,
2013-07-27 19:39:00,69.4,66.0,29.86,ESE,107,0.0,0.0,89,0.04,RA,,0.49,WeatherDisplay:10.37,2013-07-27 23:39:00,
2013-07-27 19:44:00,69.3,65.9,29.87,SW,228,0.0,0.0,89,0.04,CLR,,0.49,WeatherDisplay:10.37,2013-07-27 23:44:00,
2013-07-27 19:49:00,69.2,65.8,29.86,SW,228,0.0,0.0,89,0.04,CLR,,0.49,WeatherDisplay:10.37,2013-07-27 23:49:00,
2013-07-27 19:54:00,69.2,65.8,29.86,SW,227,0.0,0.0,89,0.04,CLR,,0.49,WeatherDisplay:10.37,2013-07-27 23:54:00,
2013-07-27 19:59:00,69.1,65.7,29.86,SW,228,0.0,0.0,89,0.04,CLR,,0.49,WeatherDisplay:10.37,2013-07-27 23:59:00,
2013-07-27 20:04:00,69.1,65.4,29.86,West,259,0.0,0.0,88,0.03,CLR,,0.49,WeatherDisplay:10.37,2013-07-28 00:04:00,
2013-07-27 20:09:00,69.0,65.3,29.86,West,259,0.0,0.0,88,0.03,CLR,,0.49,WeatherDisplay:10.37,2013-07-28 00:09:00,
2013-07-27 20:14:00,69.1,65.4,29.86,West,259,0.0,0.0,88,0.03,CLR,,0.49,WeatherDisplay:10.37,2013-07-28 00:14:00,
2013-07-27 20:19:00,69.1,65.4,29.86,West,259,0.0,0.0,88,0.02,CLR,,0.49,WeatherDisplay:10.37,2013-07-28 00:19:00,
2013-07-27 20:24:00,69.0,65.3,29.87,West,259,0.0,0.0,88,0.02,CLR,,0.49,WeatherDisplay:10.37,2013-07-28 00:24:00,
2013-07-27 20:29:00,69.0,65.3,29.87,West,259,0.0,0.0,88,0.01,CLR,,0.49,WeatherDisplay:10.37,2013-07-28 00:29:00,
2013-07-27 20:34:00,69.0,65.3,29.87,SSW,201,0.0,0.0,88,0.01,RA,,0.50,WeatherDisplay:10.37,2013-07-28 00:34:00,
2013-07-27 20:39:00,68.9,65.2,29.87,SSW,201,0.0,0.0,88,0.02,RA,,0.51,WeatherDisplay:10.37,2013-07-28 00:39:00,
2013-07-27 20:44:00,68.8,65.1,29.87,SSW,201,0.0,0.0,88,0.03,RA,,0.52,WeatherDisplay:10.37,2013-07-28 00:44:00,
2013-07-27 20:49:00,68.8,65.1,29.87,SSW,201,0.0,0.0,88,0.03,RA,,0.52,WeatherDisplay:10.37,2013-07-28 00:49:00,
2013-07-27 20:54:00,68.8,65.1,29.87,SSW,201,0.0,0.0,88,0.03,CLR,,0.52,WeatherDisplay:10.37,2013-07-28 00:54:00,
2013-07-27 20:59:00,68.8,65.1,29.87,SSW,201,0.0,0.0,88,0.04,RA,,0.53,WeatherDisplay:10.37,2013-07-28 00:59:00,
2013-07-27 21:04:00,68.7,65.0,29.87,SSW,201,0.0,0.0,88,0.04,RA,,0.53,WeatherDisplay:10.37,2013-07-28 01:04:00,
2013-07-27 21:09:00,68.7,64.7,29.87,SSW,201,0.0,0.0,87,0.04,,,0.53,WeatherDisplay:10.37,2013-07-28 01:09:00,
2013-07-27 21:14:00,68.6,64.9,29.87,SSW,201,0.0,0.0,88,0.04,,,0.53,WeatherDisplay:10.37,2013-07-28 01:14:00,
2013-07-27 21:19:00,68.6,64.9,29.87,SSW,201,0.0,0.0,88,0.04,,,0.53,WeatherDisplay:10.37,2013-07-28 01:19:00,
2013-07-27 21:24:00,68.6,64.6,29.87,SSW,201,0.0,0.0,87,0.04,,,0.53,WeatherDisplay:10.37,2013-07-28 01:24:00,
2013-07-27 21:29:00,68.5,64.8,29.88,SSW,201,0.0,0.0,88,0.04,,,0.53,WeatherDisplay:10.37,2013-07-28 01:29:00,
2013-07-27 21:34:00,68.4,64.7,29.88,SSW,201,0.0,0.0,88,0.03,,,0.53,WeatherDisplay:10.37,2013-07-28 01:34:00,
2013-07-27 21:39:00,68.4,64.7,29.88,SSW,201,0.0,0.0,88,0.02,,,0.53,WeatherDisplay:10.37,2013-07-28 01:39:00,
2013-07-27 21:44:00,68.4,64.7,29.88,SSW,201,0.0,0.0,88,0.01,,,0.54,WeatherDisplay:10.37,2013-07-28 01:44:00,
2013-07-27 21:49:00,68.3,64.3,29.88,SSW,201,0.0,0.0,87,0.02,RA,,0.54,WeatherDisplay:10.37,2013-07-28 01:49:00,
2013-07-27 21:54:00,68.4,64.4,29.88,SSW,201,0.0,0.0,87,0.02,RA,,0.54,WeatherDisplay:10.37,2013-07-28 01:54:00,
2013-07-27 21:59:00,68.4,64.4,29.88,South,174,0.0,0.0,87,0.01,,,0.54,WeatherDisplay:10.37,2013-07-28 01:59:00,
2013-07-27 22:04:00,68.4,64.4,29.88,South,173,0.0,0.0,87,0.01,,,0.54,WeatherDisplay:10.37,2013-07-28 02:04:00,
2013-07-27 22:09:00,68.4,64.4,29.88,NW,307,1.1,0.0,87,0.02,RA,,0.55,WeatherDisplay:10.37,2013-07-28 02:09:00,
2013-07-27 22:14:00,68.4,64.4,29.88,North,352,0.0,0.0,87,0.02,RA,,0.55,WeatherDisplay:10.37,2013-07-28 02:14:00,
2013-07-27 22:19:00,68.4,64.4,29.88,NE,42,3.5,3.5,87,0.02,,,0.55,WeatherDisplay:10.37,2013-07-28 02:19:00,
2013-07-27 22:24:00,68.3,64.3,29.87,ENE,60,1.0,1.0,87,0.02,,,0.55,WeatherDisplay:10.37,2013-07-28 02:24:00,
2013-07-27 22:29:00,68.3,64.3,29.87,ENE,60,0.0,0.0,87,0.03,RA,,0.56,WeatherDisplay:10.37,2013-07-28 02:29:00,
2013-07-27 22:34:00,68.3,64.3,29.87,East,80,0.0,0.0,87,0.03,RA,,0.56,WeatherDisplay:10.37,2013-07-28 02:34:00,
2013-07-27 22:39:00,68.5,64.5,29.86,SW,228,0.0,0.0,87,0.03,,,0.56,WeatherDisplay:10.37,2013-07-28 02:39:00,
2013-07-27 22:44:00,68.4,64.4,29.86,SW,229,0.0,0.0,87,0.03,,,0.56,WeatherDisplay:10.37,2013-07-28 02:44:00,
2013-07-27 22:49:00,68.5,64.5,29.86,SE,126,1.1,0.0,87,0.02,,,0.57,WeatherDisplay:10.37,2013-07-28 02:49:00,
2013-07-27 22:54:00,68.6,64.6,29.86,East,94,0.0,0.0,87,0.03,RA,,0.57,WeatherDisplay:10.37,2013-07-28 02:54:00,
2013-07-27 23:00:00,68.5,64.5,29.86,SE,135,0.0,0.0,87,0.03,RA,,0.57,WeatherDisplay:10.37,2013-07-28 03:00:00,
2013-07-27 23:05:00,68.6,64.6,29.86,SSW,195,4.0,4.0,87,0.02,,,0.57,WeatherDisplay:10.37,2013-07-28 03:05:00,
2013-07-27 23:10:00,68.6,64.6,29.85,NNE,29,0.0,0.0,87,0.02,,,0.57,WeatherDisplay:10.37,2013-07-28 03:10:00,
2013-07-27 23:15:00,68.6,64.6,29.85,SSW,200,6.0,6.0,87,0.02,,,0.57,WeatherDisplay:10.37,2013-07-28 03:15:00,
2013-07-27 23:20:00,68.6,64.6,29.85,SSE,163,0.0,0.0,87,0.02,,,0.57,WeatherDisplay:10.37,2013-07-28 03:20:00,
2013-07-27 23:25:00,68.5,64.5,29.85,West,270,3.0,3.0,87,0.02,,,0.57,WeatherDisplay:10.37,2013-07-28 03:25:00,
2013-07-27 23:30:00,68.5,64.5,29.85,SE,145,1.1,1.1,87,0.01,,,0.57,WeatherDisplay:10.37,2013-07-28 03:30:00,
2013-07-27 23:35:00,68.4,64.4,29.85,SW,221,0.0,0.0,87,0.01,,,0.57,WeatherDisplay:10.37,2013-07-28 03:35:00,
2013-07-27 23:40:00,68.4,64.4,29.85,SSE,163,0.0,0.0,87,0.01,,,0.57,WeatherDisplay:10.37,2013-07-28 03:40:00,
2013-07-27 23:45:00,68.3,64.3,29.85,ESE,115,1.1,0.0,87,0.01,,,0.57,WeatherDisplay:10.37,2013-07-28 03:45:00,
2013-07-27 23:50:00,68.4,64.4,29.85,SW,215,0.0,0.0,87,0.01,RA,,0.58,WeatherDisplay:10.37,2013-07-28 03:50:00,
2013-07-27 23:55:00,68.4,64.4,29.85,SE,137,4.6,4.6,87,0.01,RA,,0.58,WeatherDisplay:10.37,2013-07-28 03:55:00,